TimePST,TemperatureF,Dew PointF,Humidity,Sea Level PressureIn,VisibilityMPH,Wind Direction,Wind SpeedMPH,Gust SpeedMPH,PrecipitationIn,Events,Conditions,WindDirDegrees,DateUTC
12:54 AM,39.9,37.0,89,30.01,10.0,SSW,5.8,-,0.01,,Overcast,200,2013-02-07 08:54:00
1:11 AM,37.4,35.6,93,30.00,10.0,South,5.8,-,N/A,,Mostly Cloudy,180,2013-02-07 09:11:00
1:20 AM,37.4,35.6,93,30.01,10.0,South,4.6,-,N/A,,Mostly Cloudy,180,2013-02-07 09:20:00
1:54 AM,39.0,37.0,93,30.02,10.0,South,5.8,-,N/A,,Overcast,170,2013-02-07 09:54:00
2:54 AM,37.0,35.1,93,30.03,10.0,South,6.9,-,N/A,,Mostly Cloudy,180,2013-02-07 10:54:00
3:54 AM,39.0,36.0,89,30.03,10.0,South,5.8,-,N/A,,Overcast,170,2013-02-07 11:54:00
4:10 AM,37.4,35.6,93,30.03,10.0,South,4.6,-,N/A,,Mostly Cloudy,180,2013-02-07 12:10:00
4:54 AM,37.9,36.0,93,30.03,10.0,SSW,3.5,-,N/A,,Mostly Cloudy,210,2013-02-07 12:54:00
5:54 AM,36.0,35.1,97,30.03,10.0,South,4.6,-,N/A,,Mostly Cloudy,180,2013-02-07 13:54:00
6:54 AM,37.0,34.0,89,30.03,10.0,SSE,5.8,-,N/A,,Scattered Clouds,160,2013-02-07 14:54:00
7:54 AM,33.1,30.9,92,30.03,10.0,SSE,3.5,-,N/A,,Scattered Clouds,150,2013-02-07 15:54:00
8:54 AM,39.0,37.0,93,30.04,10.0,Calm,Calm,-,N/A,,Mostly Cloudy,0,2013-02-07 16:54:00
9:54 AM,42.1,37.0,82,30.04,10.0,SSW,4.6,-,N/A,,Mostly Cloudy,210,2013-02-07 17:54:00
10:54 AM,45.0,37.9,76,30.04,10.0,SSW,8.1,-,N/A,,Mostly Cloudy,200,2013-02-07 18:54:00
11:54 AM,45.0,37.9,76,30.03,10.0,SW,10.4,-,N/A,,Overcast,220,2013-02-07 19:54:00
12:26 PM,46.4,37.4,71,30.01,10.0,WSW,5.8,-,N/A,,Overcast,250,2013-02-07 20:26:00
12:54 PM,46.0,37.0,71,30.01,10.0,WSW,4.6,-,N/A,,Overcast,250,2013-02-07 20:54:00
1:21 PM,42.8,37.4,81,30.01,5.0,SSW,12.7,-,0.01,Rain,Rain,210,2013-02-07 21:21:00
1:54 PM,44.1,37.9,79,30.00,10.0,WSW,6.9,-,0.02,,Overcast,240,2013-02-07 21:54:00
2:54 PM,45.0,37.0,74,30.00,10.0,South,12.7,-,N/A,,Overcast,190,2013-02-07 22:54:00
3:54 PM,45.0,37.0,74,30.00,10.0,SSW,11.5,-,0.00,,Mostly Cloudy,200,2013-02-07 23:54:00
4:54 PM,43.0,37.0,80,30.01,10.0,SW,3.5,-,N/A,,Mostly Cloudy,230,2013-02-08 00:54:00
5:54 PM,41.0,36.0,82,30.03,10.0,SSW,3.5,-,N/A,,Mostly Cloudy,210,2013-02-08 01:54:00
6:54 PM,37.9,36.0,93,30.05,10.0,Calm,Calm,-,N/A,,Scattered Clouds,0,2013-02-08 02:54:00
7:28 PM,39.2,35.6,87,30.06,10.0,Calm,Calm,-,N/A,,Overcast,0,2013-02-08 03:28:00
7:54 PM,39.9,37.0,89,30.07,10.0,Calm,Calm,-,N/A,,Overcast,0,2013-02-08 03:54:00
8:54 PM,42.1,37.9,85,30.09,10.0,Calm,Calm,-,0.00,Rain,Light Rain,0,2013-02-08 04:54:00
9:54 PM,39.9,37.0,89,30.11,10.0,Calm,Calm,-,0.01,,Overcast,0,2013-02-08 05:54:00
10:54 PM,41.0,37.9,89,30.12,10.0,Calm,Calm,-,N/A,,Overcast,0,2013-02-08 06:54:00
11:54 PM,39.0,37.0,93,30.14,10.0,North,4.6,-,N/A,,Overcast,360,2013-02-08 07:54:00